Location: Fontaine-en-Sologne
(47.5091°N, 1.5504°E)
Time: 13:51:00
(UTC+00:00)

Daily predictions for brighter satellites

Satellite Brightness Start Highest point End
(mag) Time Altitude Azimuth Time Altitude Azimuth Time Altitude Azimuth
Okean 2 Rocket 3.8 20:15:50 10° N 20:19:54 36° ENE 20:23:55 10° SE
BlueWalker 3 3.5 20:21:25 10° WNW 20:24:47 32° N 20:28:07 10° ENE
Cosmos 2151 Rocket 3.9 20:22:38 10° N 20:27:04 52° ENE 20:31:27 10° SSE
CZ-4C R/B 2.7 20:24:41 10° S 20:28:11 26° ESE 20:32:19 10° ENE
Okean 1 Rocket 3.8 20:27:07 10° N 20:31:10 36° ENE 20:35:10 10° SE
Cosmos 1656 Rocket 3.9 20:26:53 10° SSW 20:32:26 75° WNW 20:37:56 10° NNE
IRS-1A Rocket 4.3 20:27:35 10° SSE 20:33:04 77° ENE 20:38:40 10° NNW
SOZ 4.2 20:30:21 10° WSW 20:33:21 67° SSE 20:35:33 10° ENE
Cosmos 2297 3.7 20:28:53 10° SSW 20:34:28 71° ESE 20:40:09 10° NNE
Cosmos 2242 Rocket 4.0 20:30:28 10° SSW 20:34:48 66° W 20:39:11 10° N
ASTEX 1 4.1 20:33:54 10° NNE 20:38:23 36° E 20:42:49 10° SSE
Cosmos 2221 Rocket 4.1 20:36:20 10° SSE 20:40:35 43° E 20:44:54 10° NNE
Cosmos 1503 Rocket 3.9 20:35:51 10° SSW 20:40:59 79° ESE 20:46:10 10° NNE
Cosmos 1455 Rocket 4.5 20:38:06 10° NNE 20:41:35 23° ENE 20:44:51 11° ESE
Meteor 1-21 Rocket 4.2 20:36:11 10° S 20:41:48 70° E 20:47:21 10° NNE
Tiangong -0.3 20:42:15 10° SSW 20:44:24 16° SSE 20:45:51 13° SE
Cosmos 44 3.5 20:41:02 10° S 20:44:58 37° ESE 20:49:01 10° NE
Meteor PRIRODA 3.7 20:42:42 10° S 20:45:27 49° W 20:48:13 10° NNW
ISS -2.6 20:44:07 10° WNW 20:47:20 42° N 20:50:33 10° E
CZ-4B R/B 4.4 20:42:56 10° SSW 20:47:58 39° W 20:53:07 10° NNW
Cosmos 1354 Rocket 4.0 20:46:01 10° S 20:51:11 70° ESE 20:56:23 10° NNE
Cosmos 1674 Rocket 3.5 20:48:27 10° S 20:52:52 81° E 20:57:19 10° NNE
Sich 1 Rocket 3.7 20:49:28 10° N 20:54:02 70° E 20:58:21 11° SSE
CZ-4 R/B 4.2 20:54:15 10° WSW 20:55:25 11° W 20:56:35 10° WNW
In-Cosmos 22 Rocket 4.3 20:49:38 10° S 20:55:27 88° WNW 21:01:14 10° N
Ariane Rocket 3.3 20:54:15 13° SE 20:58:42 54° ENE 21:03:37 10° N
DELTA 2 R/B (1) 4.3 20:58:47 10° SW 21:03:35 31° SSE 21:08:23 10° ESE
Terra 2.5 20:59:37 10° S 21:04:12 52° W 21:08:49 10° NNW
SAR-Lupe-2 3.7 21:04:34 16° SSE 21:07:17 64° ENE 21:10:52 10° N
Cosmos 2369 Rocket 2.6 21:02:07 10° SW 21:07:47 71° WNW 21:13:28 10° NNE
Cosmos 1378 Rocket 4.3 21:04:02 10° SSW 21:08:12 52° WNW 21:12:24 10° N
Cosmos 1025 Rocket 3.0 21:05:36 10° S 21:09:54 77° E 21:14:17 10° NNE
Cosmos 1869 4.1 21:08:15 10° NNW 21:11:39 42° W 21:14:59 10° SSW
Okean-O 3.7 21:07:44 10° S 21:11:52 41° W 21:16:02 10° NNW
Meteor 2-12 Rocket 4.5 21:07:29 10° S 21:13:39 88° E 21:19:48 10° N
USA 245 3.6 21:09:58 11° S 21:13:56 60° WSW 21:17:15 10° NNW
Okean O Rocket 3.4 21:13:29 10° SSW 21:17:15 28° W 21:21:03 10° NW
Lacrosse 5 rocket 3.7 21:15:09 10° NW 21:18:08 20° N 21:21:07 10° NE
Cosmos 2297 Rocket 3.9 21:14:47 10° N 21:19:13 23° NE 21:23:37 10° E
Spot 2 Rocket 4.4 21:28:39 10° S 21:33:30 44° W 21:38:22 10° NNW
Cosmos 1812 2.3 21:30:25 10° NNW 21:33:33 69° W 21:35:17 24° S
Cosmos 1867 3.7 21:30:42 10° SSW 21:35:56 50° ESE 21:41:12 10° NE
SPOT 3 Rocket 3.8 21:32:07 15° S 21:36:22 67° WSW 21:41:35 10° NNW
PSLV R/B 3.1 21:34:54 29° SSE 21:36:22 87° ENE 21:39:30 10° NNW
Cosmos 1900 4.3 21:35:44 10° SSW 21:40:43 75° ESE 21:45:50 10° NE
DNEPR-1 R/B 3.5 21:37:02 10° NW 21:41:16 72° NE 21:43:42 25° SE
Cosmos 1898 Rocket 3.7 21:38:08 18° S 21:41:51 52° ESE 21:46:56 10° NNE
Cosmos 1538 Rocket 4.1 21:43:02 10° NNW 21:48:24 76° WSW 21:51:46 23° S
Cosmos 2227 Rocket 4.2 21:47:49 10° N 21:52:00 20° NE 21:56:08 10° E
USA 81 4.1 21:53:41 24° SSE 21:56:49 67° E 22:02:03 10° N
Gbstr 26 Del rocket 3.8 21:52:32 10° WNW 21:57:37 74° NNE 22:03:17 13° ESE
Cosmos 2098 Rocket 2.6 21:57:49 10° N 22:01:06 61° E 22:02:14 39° SE
ATLAS 2AS CENTAUR R/B 4.5 21:57:12 10° NW 22:02:50 26° NNE 22:08:23 10° ENE
Cosmos 1515 3.7 22:00:28 10° NNW 22:02:55 37° W 22:03:25 33° SW
BlueWalker 3 2.3 21:59:20 10° WNW 22:02:58 55° NNE 22:05:03 22° E
Cosmos 2228 2.9 22:02:20 10° N 22:06:34 71° E 22:08:13 36° SSE
ALOS 2 4.5 22:05:31 15° E 22:07:34 20° ENE 22:10:45 10° NNE
Cosmos 1975 Rocket 3.1 22:08:21 25° SSW 22:10:50 78° W 22:15:09 10° N
Cosmos 381 Rocket 4.5 22:07:08 10° NNW 22:13:28 83° WSW 22:16:57 28° SSE
CZ-4C R/B 2.8 22:11:36 10° WSW 22:15:56 50° NW 22:21:28 10° NE
Cosmos 372 Rocket 4.1 22:11:45 13° SSW 22:16:17 75° WNW 22:21:23 10° NNE
Aureole 1 Rocket 4.4 22:11:19 10° SSW 22:17:56 74° WNW 22:25:29 10° NNE
Cosmos 1455 Rocket 4.2 22:15:26 10° NNW 22:19:23 36° W 22:21:50 20° SSW
CZ-4C R/B 3.8 22:16:42 10° NNE 22:20:10 37° E 22:20:28 36° ESE
Tiangong 0.5 22:18:06 10° WSW 22:18:20 11° SW 22:18:20 11° SW
USA 215 4.1 22:16:08 10° E 22:22:20 48° NNE 22:28:34 10° NW
MetOp-A 4.2 22:21:32 31° ESE 22:22:31 37° ENE 22:26:02 10° N
ISS -3.9 22:20:54 10° WNW 22:24:15 71° SSW 22:24:31 67° S
Meteor 2-20 4.4 22:21:39 10° N 22:27:50 88° W 22:31:02 30° S
Cosmos 1656 3.6 22:26:02 29° S 22:28:56 65° ESE 22:34:24 10° NNE
Cosmos 2112 Rocket 4.0 22:28:21 10° NNW 22:33:39 76° ENE 22:35:51 36° SE
Cosmos 2263 Rocket 4.1 22:33:22 10° N 22:37:46 23° NE 22:42:08 10° E
Cosmos 1937 Rocket 3.6 22:34:44 21° SSW 22:38:12 73° WNW 22:43:20 10° NNE
DELTA 2 DEB (DPAF) 3.8 22:35:08 10° NNE 22:39:03 77° WNW 22:40:19 41° SSW
RESURS DK-1 2.2 22:37:43 10° NNW 22:41:43 79° WSW 22:42:29 56° S
Cosmos 1400 Rocket 2.6 22:39:05 10° NNW 22:42:55 85° W 22:43:33 60° S
Cosmos 1680 Rocket 3.5 22:38:30 10° NNW 22:43:47 77° WSW 22:45:47 39° S
Cosmos 1782 3.1 22:40:21 10° N 22:43:55 46° ENE 22:44:20 43° E
Cosmos 2266 Rocket 4.3 22:42:52 33° SSE 22:45:39 57° E 22:51:55 10° NNE
DELTA 2 R/B (1) 4.1 22:44:12 10° WSW 22:49:05 36° S 22:49:05 36° S
SL-08 ROCKET BODY 4.3 22:47:35 34° S 22:50:20 82° E 22:56:15 10° N
CZ-2C R/B 3.7 22:47:54 10° NNE 22:52:39 81° ESE 22:54:09 44° S
ARIANE 5 R/B 2.5 22:51:38 49° SSE 22:52:51 88° ENE 22:57:18 10° NNW
Cosmos 2058 2.7 22:53:29 58° SE 22:53:55 63° E 22:57:50 10° NNE
Cosmos 1862 4.2 22:54:19 31° E 22:54:19 31° E 22:57:27 10° NNE
Lacrosse 5 rocket 2.6 22:52:43 10° NW 22:56:22 36° NNE 22:59:03 16° E
Cosmos 1553 Rocket 4.3 22:51:24 10° NNW 22:57:35 62° W 23:00:45 30° SSW
Cosmos 2315 Rocket 4.3 22:54:43 10° N 23:01:02 57° ENE 23:03:49 33° SE
Cosmos 2297 Rocket 2.1 22:58:14 10° NNW 23:03:54 78° WSW 23:05:55 41° SSE
Cosmos 1536 Rocket 3.5 23:03:26 49° SSW 23:04:35 80° W 23:09:01 10° N
Spot 4 3.8 23:06:04 48° SSE 23:07:28 89° NE 23:12:18 10° NNW
Cosmos 494 Rocket 3.9 23:06:36 10° NNW 23:11:49 74° WSW 23:13:19 46° S
Cosmos 1606 Rocket 3.5 23:08:20 10° N 23:12:43 79° E 23:13:33 57° SSE
Cosmos 1980 Rocket 3.3 23:12:31 25° ESE 23:13:15 26° ESE 23:17:48 10° NE
Cosmos 1125 Rocket 4.4 23:15:22 31° ESE 23:16:09 33° ESE 23:20:47 10° NE
Cosmos 1417 Rocket 4.5 23:10:56 10° NNW 23:17:04 74° W 23:19:33 38° S
Cosmos 1697 Rocket 2.8 23:15:36 43° SSE 23:17:11 58° ESE 23:22:45 10° NE
S3M 4.0 23:12:52 10° N 23:19:12 83° W 23:21:42 39° S
ATLAS 5 CENTAUR R/B 4.4 23:19:56 10° N 23:22:22 15° NNE 23:25:04 10° ENE
Cosmos 2360 4.3 23:20:29 28° SW 23:23:36 73° WNW 23:29:19 10° NNE
Cosmos 1048 Rocket 4.0 23:19:04 10° NNW 23:24:28 84° ENE 23:26:09 45° SSE
GEOS 3 Rocket 3.9 23:19:58 10° NE 23:25:06 49° ESE 23:26:03 44° SSE
BREEZE-M DEB (TANK) 3.7 23:23:16 10° W 23:27:04 76° N 23:41:10 10° E
Cosmos 1356 Rocket 3.6 23:23:37 10° N 23:27:38 57° ENE 23:28:08 53° ESE
Cosmos 1726 Rocket 3.6 23:30:42 10° N 23:35:21 83° W 23:36:15 57° S
Cosmos 2227 Rocket 2.1 23:31:07 10° NNW 23:36:51 89° ENE 23:38:48 43° SSE
USA 290 4.1 23:35:53 10° N 23:38:37 24° ENE 23:39:06 23° ENE
Meteor 2-3 Rocket 3.9 23:38:20 42° SSE 23:40:08 63° E 23:45:50 10° NNE
Cosmos 2058 Rocket 3.4 23:35:46 10° N 23:40:11 57° ENE 23:41:04 48° ESE
BlueWalker 3 3.5 23:37:12 10° WNW 23:38:56 22° W 23:38:56 22° W
Cosmos 1655 Rocket 4.0 23:38:29 40° S 23:40:59 83° E 23:47:23 10° N
ALOS 2 2.9 23:42:55 46° SW 23:43:33 51° W 23:47:51 10° NNW
Gbstr 26 Del rocket 4.2 23:38:52 10° WNW 23:44:12 45° SW 23:45:18 41° S
PSLV R/B 3.7 23:40:46 10° NNE 23:45:28 84° WNW 23:46:32 54° SSW
Cosmos 1602 4.0 23:53:20 46° NW 23:53:20 46° NW 23:56:09 10° N
